This demonstration page uses our WeatherBlox Daily Observations layout. Learn more.

Left ArrowRight Arrow

32.84923, -109.75925

Hourly Observations for December 1, 2022

Temp ( °F °C ) Dew Point ( °F °C ) Humidity (%) Winds ( mph kmh ) Pressure ( in mb ) Visibility ( mi km ) Precip ( " mm )
12:51 am 00:51 Clear 44 6.7 24 -4.4 45 45 SSE 9 15 29.97 1015 10 16 0.00 0.00
1:51 am 01:51 Clear 42 5.6 23 -5 46 46 SE 9 15 29.96 1015 10 16 0.00 0.00
2:51 am 02:51 Clear 41 5 23 -5 48 48 Calm 29.96 1015 10 16 0.00 0.00
3:51 am 03:51 Clear 39 3.9 22 -5.6 50 50 SE 7 11 29.97 1015 10 16 0.00 0.00
4:51 am 04:51 Clear 40 4.4 23 -5 50 50 SSE 9 15 29.98 1015 10 16 0.00 0.00
5:51 am 05:51 Clear 42 5.6 23 -5 46 46 SE 10 17 30.00 1016 10 16 0.00 0.00
6:51 am 06:51 Clear 43 6.1 24 -4.4 47 47 SE 15 24 30.02 1017 10 16 0.00 0.00
7:51 am 07:51 Sunny 46 7.8 25 -3.9 43 43 SE 12 19 30.05 1018 10 16 0.00 0.00
8:51 am 08:51 Sunny 49 9.4 25 -3.9 39 39 SSE 6 9 30.05 1018 10 16 0.00 0.00
9:51 am 09:51 Sunny 59 15 27 -2.8 29 29 ESE 9 15 30.05 1018 10 16 0.00 0.00
10:51 am 10:51 Sunny 62 16.7 28 -2.2 27 27 ESE 9 15 30.04 1017 10 16 0.00 0.00
11:51 am 11:51 Sunny 64 17.8 29 -1.7 26 26 E 6 9 30.01 1016 10 16 0.00 0.00
12:51 pm 12:51 Sunny 66 18.9 30 -1.1 26 26 E 5 7 29.96 1015 10 16 0.00 0.00
1:51 pm 13:51 Sunny 69 20.6 30 -1.1 23 23 E 5 7 29.93 1014 10 16 0.00 0.00
2:51 pm 14:51 Sunny 71 21.7 30 -1.1 22 22 VRB 5 7 29.91 1013 10 16 0.00 0.00
3:51 pm 15:51 Sunny 72 22.2 29 -1.7 20 20 Calm 29.89 1012 10 16 0.00 0.00
4:51 pm 16:51 Sunny 69 20.6 28 -2.2 21 21 Calm 29.89 1012 10 16 0.00 0.00
5:51 pm 17:51 Clear 58 14.4 28 -2.2 32 32 NNW 8 13 29.93 1013 10 16 0.00 0.00
6:51 pm 18:51 Clear 55 12.8 27 -2.8 34 34 WNW 7 11 29.94 1014 9 14 0.00 0.00
7:51 pm 19:51 Clear 55 12.8 28 -2.2 35 35 WNW 7 11 29.95 1014 10 16 0.00 0.00
8:51 pm 20:51 Clear 50 10 26 -3.3 39 39 E 6 9 29.97 1015 10 16 0.00 0.00
9:51 pm 21:51 Clear 50 10 26 -3.3 39 39 SE 8 13 29.96 1015 10 16 0.00 0.00
10:51 pm 22:51 Clear 48 8.9 25 -3.9 40 40 ESE 9 15 29.96 1014 10 16 0.00 0.00
11:51 pm 23:51 Clear 46 7.8 25 -3.9 43 43 ENE 6 9 29.96 1015 10 16 0.00 0.00

Powered by AerisWeather